• In Denmark
  • List of Countries
  • For 7 days
  • Water Temperature
  • Satellite Maps
  • Weather Map
  • Weather Widgets
  • user-avatar
    Login

    Hourly Weather Odienne

    Today, 11 December, Monday

    Time Temperature Precipitation Wind Pressure Humidity
    00:00 +23°C° 0 mm 1 mps 722 mmHg 26%
    01:00 +23°C° 0 mm 1 mps 722 mmHg 27%
    02:00 +22°C° 0 mm 1 mps 722 mmHg 27%
    03:00 +22°C° 0 mm 1 mps 722 mmHg 28%
    04:00 +21°C° 0 mm 1 mps 722 mmHg 28%
    05:00 +21°C° 0 mm 1 mps 723 mmHg 29%
    06:00 +23°C° 0 mm 1 mps 723 mmHg 26%
    07:00 +25°C° 0 mm 2 mps 724 mmHg 24%
    08:00 +27°C° 0 mm 2 mps 724 mmHg 21%
    09:00 +29°C° 0 mm 2 mps 724 mmHg 18%
    10:00 +32°C° 0 mm 2 mps 724 mmHg 15%
    11:00 +35°C° 0 mm 2 mps 724 mmHg 12%
    12:00 +36°C° 0 mm 2 mps 723 mmHg 12%
    13:00 +37°C° 0 mm 2 mps 723 mmHg 12%
    14:00 +36°C° 0 mm 1 mps 722 mmHg 12%
    15:00 +34°C° 0 mm 1 mps 722 mmHg 14%
    16:00 +30°C° 0 mm 0 mps 721 mmHg 17%
    17:00 +28°C° 0 mm 0 mps 721 mmHg 19%
    18:00 +27°C° 0 mm 0 mps 722 mmHg 19%
    19:00 +26°C° 0 mm 0 mps 722 mmHg 20%
    20:00 +24°C° 0 mm 0 mps 723 mmHg 20%
    21:00 +24°C° 0 mm 0 mps 723 mmHg 21%
    22:00 +23°C° 0 mm 0 mps 723 mmHg 22%
    23:00 +22°C° 0 mm 0 mps 723 mmHg 23%

    Tomorrow, 12 December, Tuesday

    Time Temperature Precipitation Wind Pressure Humidity
    00:00 +22°C° 0 mm 0 mps 722 mmHg 23%
    01:00 +21°C° 0 mm 0 mps 722 mmHg 24%
    02:00 +21°C° 0 mm 0 mps 722 mmHg 25%
    03:00 +21°C° 0 mm 0 mps 722 mmHg 25%
    04:00 +20°C° 0 mm 0 mps 722 mmHg 26%
    05:00 +20°C° 0 mm 0 mps 722 mmHg 26%
    06:00 +22°C° 0 mm 0 mps 723 mmHg 25%
    07:00 +24°C° 0 mm 0 mps 723 mmHg 24%
    08:00 +28°C° 0 mm 1 mps 724 mmHg 22%
    09:00 +29°C° 0 mm 1 mps 724 mmHg 21%
    10:00 +30°C° 0 mm 1 mps 724 mmHg 20%
    11:00 +32°C° 0 mm 1 mps 724 mmHg 19%
    12:00 +32°C° 0 mm 1 mps 723 mmHg 19%
    13:00 +32°C° 0 mm 2 mps 723 mmHg 19%
    14:00 +32°C° 0 mm 2 mps 722 mmHg 19%
    15:00 +31°C° 0 mm 2 mps 722 mmHg 22%
    16:00 +29°C° 0 mm 2 mps 722 mmHg 24%
    17:00 +28°C° 0 mm 1 mps 722 mmHg 26%
    18:00 +28°C° 0 mm 1 mps 722 mmHg 27%
    19:00 +27°C° 0 mm 1 mps 723 mmHg 27%
    20:00 +27°C° 0 mm 1 mps 723 mmHg 27%
    21:00 +27°C° 0 mm 1 mps 723 mmHg 28%
    22:00 +27°C° 0 mm 1 mps 723 mmHg 29%
    23:00 +26°C° 0 mm 1 mps 723 mmHg 30%

    Day after tomorrow, 13 December, Wednesday

    Time Temperature Precipitation Wind Pressure Humidity
    00:00 +26°C° 0 mm 1 mps 723 mmHg 32%
    01:00 +26°C° 0 mm 1 mps 722 mmHg 34%
    02:00 +25°C° 0 mm 1 mps 722 mmHg 35%
    03:00 +25°C° 0 mm 1 mps 722 mmHg 37%
    04:00 +24°C° 0 mm 1 mps 722 mmHg 39%
    05:00 +24°C° 0 mm 1 mps 722 mmHg 40%
    06:00 +26°C° 0 mm 1 mps 723 mmHg 38%
    07:00 +28°C° 0 mm 1 mps 723 mmHg 35%
    08:00 +30°C° 0 mm 1 mps 724 mmHg 32%
    09:00 +33°C° 0 mm 1 mps 724 mmHg 28%
    10:00 +35°C° 0 mm 1 mps 724 mmHg 25%
    11:00 +39°C° 0 mm 1 mps 724 mmHg 21%
    12:00 +37°C° 0 mm 0 mps 723 mmHg 20%
    13:00 +37°C° 0 mm 0 mps 722 mmHg 19%
    14:00 +37°C° 0 mm 0 mps 721 mmHg 19%
    15:00 +35°C° 0 mm 0 mps 721 mmHg 22%
    16:00 +33°C° 0 mm 0 mps 721 mmHg 24%
    17:00 +33°C° 0 mm 1 mps 721 mmHg 27%
    18:00 +30°C° 0 mm 0 mps 722 mmHg 28%
    19:00 +29°C° 0 mm 0 mps 722 mmHg 29%
    20:00 +28°C° 0 mm 0 mps 723 mmHg 30%
    21:00 +27°C° 0 mm 0 mps 723 mmHg 32%
    22:00 +27°C° 0 mm 0 mps 723 mmHg 33%
    23:00 +28°C° 0 mm 1 mps 723 mmHg 34%

    14 December, Thursday

    Time Temperature Precipitation Wind Pressure Humidity
    00:00 +25°C° 0 mm 0 mps 722 mmHg 36%
    01:00 +25°C° 0 mm 0 mps 722 mmHg 37%
    02:00 +24°C° 0 mm 0 mps 721 mmHg 39%
    03:00 +24°C° 0 mm 0 mps 722 mmHg 40%
    04:00 +24°C° 0 mm 0 mps 722 mmHg 41%
    05:00 +25°C° 0 mm 1 mps 722 mmHg 42%
    06:00 +27°C° 0 mm 1 mps 723 mmHg 39%
    07:00 +29°C° 0 mm 1 mps 724 mmHg 36%
    08:00 +30°C° 0 mm 1 mps 724 mmHg 33%
    09:00 +32°C° 0 mm 1 mps 724 mmHg 29%
    10:00 +35°C° 0 mm 1 mps 724 mmHg 25%
    11:00 +37°C° 0 mm 1 mps 724 mmHg 21%
    12:00 +39°C° 0 mm 1 mps 723 mmHg 21%
    13:00 +39°C° 0 mm 1 mps 722 mmHg 21%
    14:00 +37°C° 0 mm 0 mps 721 mmHg 20%
    15:00 +35°C° 0 mm 0 mps 721 mmHg 23%
    16:00 +33°C° 0 mm 0 mps 721 mmHg 26%
    17:00 +33°C° 0 mm 1 mps 721 mmHg 29%
    18:00 +32°C° 0 mm 1 mps 722 mmHg 30%
    19:00 +31°C° 0 mm 1 mps 722 mmHg 30%
    20:00 +30°C° 0 mm 1 mps 723 mmHg 31%
    21:00 +30°C° 0 mm 1 mps 723 mmHg 30%
    22:00 +30°C° 0 mm 1 mps 723 mmHg 29%
    23:00 +29°C° 0 mm 1 mps 723 mmHg 28%

    15 December, Friday

    Time Temperature Precipitation Wind Pressure Humidity
    00:00 +28°C° 0 mm 1 mps 722 mmHg 28%
    01:00 +27°C° 0 mm 1 mps 722 mmHg 29%
    02:00 +26°C° 0 mm 1 mps 721 mmHg 29%
    03:00 +26°C° 0 mm 1 mps 722 mmHg 29%
    04:00 +25°C° 0 mm 1 mps 722 mmHg 29%
    05:00 +25°C° 0 mm 1 mps 723 mmHg 29%
    06:00 +26°C° 0 mm 1 mps 723 mmHg 26%
    07:00 +27°C° 0 mm 2 mps 724 mmHg 24%
    08:00 +28°C° 0 mm 2 mps 725 mmHg 21%
    09:00 +30°C° 0 mm 2 mps 725 mmHg 20%
    10:00 +32°C° 0 mm 2 mps 724 mmHg 18%
    11:00 +35°C° 0 mm 2 mps 724 mmHg 16%
    12:00 +36°C° 0 mm 2 mps 723 mmHg 16%
    13:00 +37°C° 0 mm 2 mps 722 mmHg 17%
    14:00 +37°C° 0 mm 2 mps 722 mmHg 17%
    15:00 +36°C° 0 mm 2 mps 722 mmHg 20%
    16:00 +33°C° 0 mm 1 mps 722 mmHg 22%
    17:00 +32°C° 0 mm 1 mps 722 mmHg 24%
    18:00 +31°C° 0 mm 1 mps 722 mmHg 25%
    19:00 +29°C° 0 mm 1 mps 723 mmHg 25%
    20:00 +28°C° 0 mm 1 mps 723 mmHg 26%
    21:00 +27°C° 0 mm 1 mps 723 mmHg 26%
    22:00 +26°C° 0 mm 1 mps 723 mmHg 27%
    23:00 +26°C° 0 mm 1 mps 723 mmHg 27%

    16 December, Saturday

    Time Temperature Precipitation Wind Pressure Humidity
    00:00 +25°C° 0 mm 1 mps 723 mmHg 28%
    01:00 +25°C° 0 mm 1 mps 722 mmHg 29%
    02:00 +22°C° 0 mm 0 mps 722 mmHg 30%
    03:00 +24°C° 0 mm 1 mps 722 mmHg 31%
    04:00 +23°C° 0 mm 1 mps 723 mmHg 32%
    05:00 +23°C° 0 mm 1 mps 723 mmHg 32%
    06:00 +25°C° 0 mm 1 mps 724 mmHg 29%
    07:00 +27°C° 0 mm 1 mps 724 mmHg 25%
    08:00 +29°C° 0 mm 2 mps 725 mmHg 22%
    09:00 +31°C° 0 mm 2 mps 725 mmHg 20%
    10:00 +34°C° 0 mm 2 mps 724 mmHg 17%
    11:00 +37°C° 0 mm 2 mps 724 mmHg 15%
    12:00 +37°C° 0 mm 2 mps 723 mmHg 14%
    13:00 +38°C° 0 mm 2 mps 723 mmHg 14%
    14:00 +39°C° 0 mm 2 mps 722 mmHg 13%
    15:00 +37°C° 0 mm 2 mps 722 mmHg 16%
    16:00 +35°C° 0 mm 2 mps 722 mmHg 18%
    17:00 +32°C° 0 mm 1 mps 722 mmHg 20%
    18:00 +31°C° 0 mm 1 mps 722 mmHg 21%
    19:00 +30°C° 0 mm 1 mps 723 mmHg 21%
    20:00 +28°C° 0 mm 1 mps 724 mmHg 22%
    21:00 +28°C° 0 mm 1 mps 723 mmHg 23%
    22:00 +27°C° 0 mm 1 mps 723 mmHg 24%
    23:00 +26°C° 0 mm 1 mps 723 mmHg 24%
    Show more